星链-3204 (STARLINK-3204 )

导读 | 豆包AI

STARLINK-3204是美国SpaceX公司星链(Starlink)星座中的一颗低轨通信卫星,于北京时间2021年12月2日发射入轨。属于星链第一代v1.5批次卫星,运行在约550公里的近地轨道,配备相控阵天线和氪离子推进系统,可提供高速低延迟卫星互联网接入服务。它承担全球偏远地区宽带覆盖任务,具备自主轨道机动与避碰能力,设计寿命约5年,退役后会主动降轨在大气层完全销毁,减少空间碎片影响,是星链全球通信组网的重要组成单元。

基本信息
目录编号:
49759
目录名称:
STARLINK-3204
国际标识:
2021-115AM
轨道中心:
EARTH
卫星名称:
星链-3204
卫星全名:
星链-3204 (STARLINK-3204 )
卫星状态:
在轨 (已飞行1563 天)
发射日期:
2021-12-02 UTC
国别 :
美国 (US)
星等 :
--
轨道信息
数据来源 国际轨道数据
星历时间: 2026-03-14T15:41:06+0800
10小时前
查看轨道信息
半长轴: 6917.886km
偏心率: 0.0001346
轨道倾角: 53.216°
近地点辐角 101.196°
升交点赤经 118.332°
平近点角 258.918°
近地点: 538.817km
远地点: 540.681km
周期: 95.438分钟
每日圈数: 15.088382
详细信息
固有亮度:
5
最大亮度:
2.5
卫星平台:
Starlink v1.5
覆盖范围:
全球
运营商:
太空探索技术公司
运营商所在国:
美国
制造商(研发单位):
太空探索技术公司
制造商所在国:
美国
使用方式:
暂无
卫星简介
星链(Starlink)计划是由太空探索技术公司(SpaceX)提出的一个巨型低轨卫星互联网星座项目,计划在2019年至2024年间在太空搭建由约1.2万颗卫星组成的“星链”网络,其中1584颗将部署在地球上空550千米处的近地轨道,并从2020年开始工作。该卫星仍在工作。
2D轨道图
3D轨道图
轨道高度分析图
轨道倾角分析图
轨道综合分析图
查看轨道综合分析图